| time (UTC) | temp F | wind direction | speed MPH | gust MPH | rain 1hr in | rain 24hr in | rain mn in | humidity % | barometer mb |
| 20260901030235 | 83 | 242 | 1.0 | 2.0 | 0.00 | 0.00 | 0.00 | 63 | 1017.0 |
| 20260901025735 | 83 | 263 | 1.0 | 2.0 | 0.00 | 0.00 | 0.00 | 63 | 1017.0 |
| 20260901025235 | 83 | 269 | 1.0 | 2.0 | 0.00 | 0.00 | 0.00 | 63 | 1017.0 |
| 20260901024736 | 84 | 253 | 0.0 | 2.0 | 0.00 | 0.00 | 0.00 | 63 | 1017.0 |
| 20260901024236 | 84 | 267 | 1.0 | 2.0 | 0.00 | 0.00 | 0.00 | 62 | 1017.0 |
| 20260901023735 | 84 | 266 | 1.0 | 2.0 | 0.00 | 0.00 | 0.00 | 62 | 1017.0 |
| 20260901023236 | 84 | 266 | 1.0 | 2.0 | 0.00 | 0.00 | 0.00 | 62 | 1017.0 |
| 20260901022735 | 84 | 266 | 1.0 | 2.0 | 0.00 | 0.00 | 0.00 | 61 | 1017.0 |
| 20260901022236 | 84 | 268 | 1.0 | 1.0 | 0.00 | 0.00 | 0.00 | 61 | 1017.0 |
| 20260901021737 | 85 | 257 | 1.0 | 3.0 | 0.00 | 0.00 | 0.00 | 61 | 1017.0 |
| 20260901021236 | 85 | 252 | 1.0 | 2.0 | 0.00 | 0.00 | 0.00 | 60 | 1017.0 |
| 20260901020735 | 85 | 256 | 1.0 | 2.0 | 0.00 | 0.00 | 0.00 | 59 | 1017.0 |
| 20260901020236 | 86 | 255 | 1.0 | 2.0 | 0.00 | 0.00 | 0.00 | 59 | 1017.0 |
| 20260901015735 | 86 | 279 | 1.0 | 2.0 | 0.00 | 0.00 | 0.00 | 58 | 1016.0 |
| 20260901015236 | 86 | 264 | 1.0 | 2.0 | 0.00 | 0.00 | 0.00 | 58 | 1016.0 |
| 20260901014736 | 86 | 258 | 1.0 | 2.0 | 0.00 | 0.00 | 0.00 | 57 | 1016.0 |
| 20260901014237 | 87 | 256 | 1.0 | 2.0 | 0.00 | 0.00 | 0.00 | 56 | 1016.0 |
| 20260901013735 | 87 | 262 | 2.0 | 2.0 | 0.00 | 0.00 | 0.00 | 55 | 1016.0 |
| 20260901013235 | 87 | 245 | 1.0 | 2.0 | 0.00 | 0.00 | 0.00 | 54 | 1016.0 |
| 20260901012735 | 88 | 253 | 2.0 | 2.0 | 0.00 | 0.00 | 0.00 | 53 | 1016.0 |
| 20260901012236 | 89 | 252 | 1.0 | 2.0 | 0.00 | 0.00 | 0.00 | 52 | 1016.0 |
| 20260901011255 | 89 | 258 | 2.0 | 2.0 | 0.00 | 0.00 | 0.00 | 50 | 1016.0 |
| 20260901010735 | 90 | 264 | 1.0 | 2.0 | 0.00 | 0.00 | 0.00 | 49 | 1016.0 |
| 20260901010236 | 90 | 258 | 2.0 | 2.0 | 0.00 | 0.00 | 0.00 | 48 | 1016.0 |
| 20260901005735 | 91 | 260 | 1.0 | 2.0 | 0.00 | 0.00 | 0.00 | 47 | 1016.0 |
| 20260901005235 | 91 | 243 | 2.0 | 2.0 | 0.00 | 0.00 | 0.00 | 46 | 1016.0 |
| 20260901004738 | 92 | 249 | 2.0 | 2.0 | 0.00 | 0.00 | 0.00 | 45 | 1016.0 |
| 20260901004235 | 92 | 252 | 2.0 | 2.0 | 0.00 | 0.00 | 0.00 | 44 | 1016.0 |
| 20260901003735 | 93 | 252 | 2.0 | 2.0 | 0.00 | 0.00 | 0.00 | 43 | 1016.0 |
| 20260901003236 | 93 | 250 | 2.0 | 2.0 | 0.00 | 0.00 | 0.00 | 42 | 1016.0 |
| 20260901002736 | 94 | 260 | 1.0 | 2.0 | 0.00 | 0.00 | 0.00 | 41 | 1016.0 |
| 20260901002235 | 94 | 248 | 1.0 | 3.0 | 0.00 | 0.00 | 0.00 | 40 | 1016.0 |
| 20260901001735 | 95 | 245 | 2.0 | 3.0 | 0.00 | 0.00 | 0.00 | 38 | 1016.0 |
| 20260901001235 | 95 | 233 | 2.0 | 2.0 | 0.00 | 0.00 | 0.00 | 37 | 1016.0 |
| 20260901000736 | 96 | 252 | 2.0 | 2.0 | 0.00 | 0.00 | 0.00 | 37 | 1016.0 |
| 20260901000235 | 96 | 253 | 2.0 | 2.0 | 0.00 | 0.00 | 0.00 | 37 | 1016.0 |
| 20260831235736 | 97 | 251 | 2.0 | 2.0 | 0.00 | 0.00 | 0.00 | 37 | 1016.0 |
| 20260831235235 | 97 | 250 | 2.0 | 3.0 | 0.00 | 0.00 | 0.00 | 36 | 1016.0 |
| 20260831234735 | 97 | 244 | 2.0 | 3.0 | 0.00 | 0.00 | 0.00 | 37 | 1016.0 |
| 20260831234236 | 97 | 239 | 2.0 | 4.0 | 0.00 | 0.00 | 0.00 | 36 | 1016.0 |
| 20260831233735 | 98 | 235 | 3.0 | 4.0 | 0.00 | 0.00 | 0.00 | 36 | 1016.0 |
| 20260831233236 | 98 | 235 | 3.0 | 5.0 | 0.00 | 0.00 | 0.00 | 36 | 1016.0 |
| 20260831232735 | 98 | 240 | 3.0 | 3.0 | 0.00 | 0.00 | 0.00 | 37 | 1016.0 |
| 20260831232236 | 98 | 249 | 3.0 | 4.0 | 0.00 | 0.00 | 0.00 | 36 | 1016.0 |
| 20260831231735 | 99 | 275 | 3.0 | 5.0 | 0.00 | 0.00 | 0.00 | 35 | 1016.0 |
| 20260831231235 | 99 | 259 | 4.0 | 5.0 | 0.00 | 0.00 | 0.00 | 35 | 1016.0 |
| 20260831230736 | 99 | 265 | 5.0 | 5.0 | 0.00 | 0.00 | 0.00 | 35 | 1016.0 |
| 20260831230235 | 100 | 240 | 4.0 | 4.0 | 0.00 | 0.00 | 0.00 | 34 | 1016.0 |
| 20260831225735 | 99 | 234 | 2.0 | 5.0 | 0.00 | 0.00 | 0.00 | 34 | 1016.0 |
| 20260831225235 | 100 | 253 | 2.0 | 4.0 | 0.00 | 0.00 | 0.00 | 34 | 1016.0 |
| 20260831224735 | 99 | 247 | 4.0 | 5.0 | 0.00 | 0.00 | 0.00 | 35 | 1015.0 |
| 20260831224235 | 99 | 264 | 3.0 | 6.0 | 0.00 | 0.00 | 0.00 | 34 | 1015.0 |
| 20260831223735 | 100 | 265 | 3.0 | 5.0 | 0.00 | 0.00 | 0.00 | 35 | 1015.0 |
| 20260831223235 | 100 | 219 | 2.0 | 5.0 | 0.00 | 0.00 | 0.00 | 34 | 1015.0 |
| 20260831222736 | 100 | 242 | 1.0 | 3.0 | 0.00 | 0.00 | 0.00 | 35 | 1016.0 |
| 20260831222235 | 99 | 214 | 1.0 | 4.0 | 0.00 | 0.00 | 0.00 | 35 | 1016.0 |
| 20260831221736 | 100 | 241 | 5.0 | 5.0 | 0.00 | 0.00 | 0.00 | 35 | 1015.0 |
| 20260831221236 | 99 | 243 | 1.0 | 3.0 | 0.00 | 0.00 | 0.00 | 35 | 1016.0 |
| 20260831220736 | 99 | 266 | 3.0 | 5.0 | 0.00 | 0.00 | 0.00 | 34 | 1016.0 |
| 20260831220235 | 100 | 241 | 3.0 | 5.0 | 0.00 | 0.00 | 0.00 | 33 | 1016.0 |
| 20260831215735 | 100 | 236 | 5.0 | 8.0 | 0.00 | 0.00 | 0.00 | 35 | 1016.0 |
| 20260831215235 | 100 | 265 | 4.0 | 4.0 | 0.00 | 0.00 | 0.00 | 35 | 1016.0 |
| 20260831214735 | 100 | 230 | 5.0 | 5.0 | 0.00 | 0.00 | 0.00 | 35 | 1015.0 |
| 20260831214236 | 99 | 146 | 2.0 | 3.0 | 0.00 | 0.00 | 0.00 | 35 | 1016.0 |
| 20260831213735 | 99 | 226 | 1.0 | 5.0 | 0.00 | 0.00 | 0.00 | 35 | 1016.0 |
| 20260831213236 | 99 | 245 | 0.0 | 6.0 | 0.00 | 0.00 | 0.00 | 34 | 1016.0 |
| 20260831212735 | 100 | 266 | 6.0 | 6.0 | 0.00 | 0.00 | 0.00 | 34 | 1015.0 |
| 20260831212236 | 99 | 242 | 4.0 | 7.0 | 0.00 | 0.00 | 0.00 | 35 | 1016.0 |
| 20260831211736 | 99 | 263 | 5.0 | 5.0 | 0.00 | 0.00 | 0.00 | 34 | 1015.0 |
| 20260831211235 | 99 | 231 | 4.0 | 6.0 | 0.00 | 0.00 | 0.00 | 34 | 1015.0 |
| 20260831210736 | 99 | 230 | 4.0 | 6.0 | 0.00 | 0.00 | 0.00 | 34 | 1016.0 |
| 20260831210236 | 99 | 221 | 2.0 | 4.0 | 0.00 | 0.00 | 0.00 | 35 | 1016.0 |
| 20260831205735 | 99 | 252 | 2.0 | 5.0 | 0.00 | 0.00 | 0.00 | 34 | 1016.0 |
| 20260831205236 | 98 | 229 | 3.0 | 4.0 | 0.00 | 0.00 | 0.00 | 35 | 1016.0 |
| 20260831204735 | 99 | 275 | 4.0 | 6.0 | 0.00 | 0.00 | 0.00 | 36 | 1016.0 |
| 20260831204236 | 98 | 235 | 2.0 | 7.0 | 0.00 | 0.00 | 0.00 | 36 | 1016.0 |
| 20260831203735 | 98 | 228 | 0.0 | 5.0 | 0.00 | 0.00 | 0.00 | 36 | 1016.0 |
| 20260831203236 | 98 | 231 | 2.0 | 4.0 | 0.00 | 0.00 | 0.00 | 38 | 1016.0 |
| 20260831202735 | 97 | 201 | 2.0 | 4.0 | 0.00 | 0.00 | 0.00 | 37 | 1016.0 |
| 20260831202236 | 98 | 249 | 2.0 | 3.0 | 0.00 | 0.00 | 0.00 | 38 | 1016.0 |
| 20260831201735 | 98 | 234 | 2.0 | 3.0 | 0.00 | 0.00 | 0.00 | 38 | 1016.0 |
| 20260831201236 | 98 | 244 | 4.0 | 6.0 | 0.00 | 0.00 | 0.00 | 39 | 1016.0 |
| 20260831200740 | 98 | 243 | 2.0 | 4.0 | 0.00 | 0.00 | 0.00 | 38 | 1016.0 |
| 20260831200235 | 97 | 136 | 2.0 | 3.0 | 0.00 | 0.00 | 0.00 | 39 | 1016.0 |
| 20260831195735 | 97 | 227 | 3.0 | 6.0 | 0.00 | 0.00 | 0.00 | 39 | 1016.0 |
| 20260831195236 | 97 | 303 | 2.0 | 3.0 | 0.00 | 0.00 | 0.00 | 38 | 1016.0 |
| 20260831194736 | 97 | 289 | 4.0 | 6.0 | 0.00 | 0.00 | 0.00 | 37 | 1016.0 |
| 20260831194235 | 96 | 256 | 6.0 | 6.0 | 0.00 | 0.00 | 0.00 | 38 | 1016.0 |
| 20260831193736 | 96 | 227 | 1.0 | 3.0 | 0.00 | 0.00 | 0.00 | 40 | 1016.0 |
| 20260831193235 | 96 | 231 | 5.0 | 5.0 | 0.00 | 0.00 | 0.00 | 39 | 1016.0 |
| 20260831192735 | 96 | 268 | 4.0 | 5.0 | 0.00 | 0.00 | 0.00 | 38 | 1016.0 |
| 20260831192235 | 96 | 232 | 6.0 | 7.0 | 0.00 | 0.00 | 0.00 | 40 | 1017.0 |
| 20260831191736 | 96 | 239 | 3.0 | 5.0 | 0.00 | 0.00 | 0.00 | 39 | 1017.0 |
| 20260831191236 | 96 | 249 | 4.0 | 5.0 | 0.00 | 0.00 | 0.00 | 39 | 1017.0 |
| 20260831190735 | 96 | 266 | 4.0 | 5.0 | 0.00 | 0.00 | 0.00 | 40 | 1017.0 |
| 20260831190235 | 95 | 237 | 3.0 | 4.0 | 0.00 | 0.00 | 0.00 | 40 | 1017.0 |
| 20260831185735 | 95 | 257 | 4.0 | 4.0 | 0.00 | 0.00 | 0.00 | 41 | 1017.0 |
| 20260831185235 | 95 | 245 | 5.0 | 5.0 | 0.00 | 0.00 | 0.00 | 42 | 1017.0 |
| 20260831184735 | 94 | 265 | 4.0 | 6.0 | 0.00 | 0.00 | 0.00 | 42 | 1017.0 |
| 20260831184235 | 94 | 267 | 5.0 | 6.0 | 0.00 | 0.00 | 0.00 | 41 | 1017.0 |
| 20260831183735 | 94 | 271 | 3.0 | 5.0 | 0.00 | 0.00 | 0.00 | 41 | 1017.0 |
| 20260831183236 | 94 | 252 | 4.0 | 4.0 | 0.00 | 0.00 | 0.00 | 42 | 1017.0 |
| 20260831182737 | 94 | 265 | 5.0 | 7.0 | 0.00 | 0.00 | 0.00 | 41 | 1017.0 |
| 20260831182236 | 94 | 266 | 4.0 | 6.0 | 0.00 | 0.00 | 0.00 | 43 | 1017.0 |
| 20260831181736 | 93 | 253 | 6.0 | 7.0 | 0.00 | 0.00 | 0.00 | 43 | 1017.0 |
| 20260831181236 | 93 | 266 | 3.0 | 5.0 | 0.00 | 0.00 | 0.00 | 43 | 1017.0 |
| 20260831180735 | 93 | 261 | 2.0 | 6.0 | 0.00 | 0.00 | 0.00 | 42 | 1017.0 |
| 20260831180235 | 93 | 262 | 2.0 | 4.0 | 0.00 | 0.00 | 0.00 | 43 | 1018.0 |
| 20260831175736 | 93 | 262 | 3.0 | 7.0 | 0.00 | 0.00 | 0.00 | 42 | 1018.0 |
| 20260831175236 | 93 | 257 | 4.0 | 5.0 | 0.00 | 0.00 | 0.00 | 43 | 1018.0 |
| 20260831174736 | 93 | 252 | 5.0 | 8.0 | 0.00 | 0.00 | 0.00 | 44 | 1018.0 |
| 20260831174236 | 92 | 249 | 3.0 | 5.0 | 0.00 | 0.00 | 0.00 | 43 | 1018.0 |
| 20260831173735 | 92 | 278 | 4.0 | 8.0 | 0.00 | 0.00 | 0.00 | 43 | 1018.0 |
| 20260831173235 | 92 | 243 | 3.0 | 8.0 | 0.00 | 0.00 | 0.00 | 43 | 1018.0 |
| 20260831172735 | 92 | 249 | 3.0 | 7.0 | 0.00 | 0.00 | 0.00 | 43 | 1018.0 |
| 20260831172236 | 92 | 238 | 3.0 | 7.0 | 0.00 | 0.00 | 0.00 | 43 | 1018.0 |
| 20260831171736 | 92 | 253 | 6.0 | 6.0 | 0.00 | 0.00 | 0.00 | 44 | 1018.0 |
| 20260831171235 | 92 | 240 | 4.0 | 6.0 | 0.00 | 0.00 | 0.00 | 43 | 1018.0 |
| 20260831170735 | 92 | 259 | 3.0 | 6.0 | 0.00 | 0.00 | 0.00 | 43 | 1018.0 |
| 20260831170236 | 92 | 247 | 5.0 | 8.0 | 0.00 | 0.00 | 0.00 | 43 | 1018.0 |
| 20260831165735 | 91 | 234 | 6.0 | 6.0 | 0.00 | 0.00 | 0.00 | 45 | 1018.0 |
| 20260831165235 | 91 | 239 | 4.0 | 6.0 | 0.00 | 0.00 | 0.00 | 45 | 1018.0 |
| 20260831164735 | 90 | 236 | 3.0 | 7.0 | 0.00 | 0.00 | 0.00 | 45 | 1018.0 |
| 20260831164236 | 90 | 238 | 2.0 | 5.0 | 0.00 | 0.00 | 0.00 | 46 | 1018.0 |
| 20260831163735 | 89 | 272 | 4.0 | 5.0 | 0.00 | 0.00 | 0.00 | 47 | 1019.0 |
| 20260831163236 | 89 | 235 | 3.0 | 6.0 | 0.00 | 0.00 | 0.00 | 47 | 1018.0 |
| 20260831162735 | 89 | 239 | 4.0 | 8.0 | 0.00 | 0.00 | 0.00 | 47 | 1019.0 |
| 20260831162236 | 89 | 268 | 4.0 | 7.0 | 0.00 | 0.00 | 0.00 | 47 | 1018.0 |
| 20260831161736 | 88 | 249 | 2.0 | 6.0 | 0.00 | 0.00 | 0.00 | 48 | 1018.0 |
| 20260831161236 | 88 | 252 | 6.0 | 6.0 | 0.00 | 0.00 | 0.00 | 47 | 1019.0 |
| 20260831160737 | 88 | 232 | 5.0 | 7.0 | 0.00 | 0.00 | 0.00 | 47 | 1019.0 |
| 20260831160235 | 88 | 258 | 3.0 | 4.0 | 0.00 | 0.00 | 0.00 | 48 | 1019.0 |
| 20260831155735 | 88 | 244 | 4.0 | 7.0 | 0.00 | 0.00 | 0.00 | 47 | 1019.0 |
| 20260831155235 | 87 | 221 | 4.0 | 6.0 | 0.00 | 0.00 | 0.00 | 48 | 1019.0 |
| 20260831154736 | 87 | 263 | 4.0 | 5.0 | 0.00 | 0.00 | 0.00 | 48 | 1019.0 |
| 20260831154235 | 87 | 233 | 4.0 | 7.0 | 0.00 | 0.00 | 0.00 | 49 | 1019.0 |
| 20260831153736 | 87 | 248 | 4.0 | 5.0 | 0.00 | 0.00 | 0.00 | 49 | 1019.0 |
| 20260831153236 | 87 | 234 | 3.0 | 6.0 | 0.00 | 0.00 | 0.00 | 49 | 1019.0 |
| 20260831152351 | 87 | 255 | 4.0 | 5.0 | 0.00 | 0.00 | 0.00 | 49 | 1019.0 |
| 20260831151735 | 87 | 251 | 3.0 | 5.0 | 0.00 | 0.00 | 0.00 | 49 | 1019.0 |
| 20260831151236 | 85 | 254 | 2.0 | 5.0 | 0.00 | 0.00 | 0.00 | 50 | 1019.0 |
| 20260831150735 | 86 | 226 | 5.0 | 7.0 | 0.00 | 0.00 | 0.00 | 50 | 1018.0 |
| 20260831150237 | 86 | 261 | 3.0 | 5.0 | 0.00 | 0.00 | 0.00 | 50 | 1018.0 |
| 20260831145737 | 86 | 247 | 3.0 | 3.0 | 0.00 | 0.00 | 0.00 | 51 | 1018.0 |
| 20260831145236 | 86 | 238 | 1.0 | 4.0 | 0.00 | 0.00 | 0.00 | 52 | 1018.0 |
| 20260831144736 | 85 | 245 | 4.0 | 4.0 | 0.00 | 0.00 | 0.00 | 52 | 1018.0 |
| 20260831144239 | 86 | 246 | 3.0 | 6.0 | 0.00 | 0.00 | 0.00 | 50 | 1018.0 |
| 20260831143736 | 86 | 238 | 3.0 | 5.0 | 0.00 | 0.00 | 0.00 | 51 | 1018.0 |
| 20260831143235 | 87 | 244 | 5.0 | 5.0 | 0.00 | 0.00 | 0.00 | 50 | 1018.0 |
| 20260831142735 | 85 | 168 | 2.0 | 3.0 | 0.00 | 0.00 | 0.00 | 52 | 1018.0 |
| 20260831142236 | 85 | 259 | 2.0 | 4.0 | 0.00 | 0.00 | 0.00 | 51 | 1018.0 |
| 20260831141735 | 85 | 217 | 0.0 | 3.0 | 0.00 | 0.00 | 0.00 | 52 | 1018.0 |
| 20260831141235 | 85 | 235 | 3.0 | 3.0 | 0.00 | 0.00 | 0.00 | 52 | 1018.0 |
| 20260831140736 | 84 | 232 | 2.0 | 3.0 | 0.00 | 0.00 | 0.00 | 53 | 1018.0 |
| 20260831140236 | 84 | 258 | 2.0 | 3.0 | 0.00 | 0.00 | 0.00 | 53 | 1018.0 |
| 20260831135735 | 83 | 232 | 2.0 | 2.0 | 0.00 | 0.00 | 0.00 | 54 | 1018.0 |
| 20260831135235 | 83 | 226 | 2.0 | 3.0 | 0.00 | 0.00 | 0.00 | 53 | 1018.0 |
| 20260831134736 | 82 | 186 | 0.0 | 2.0 | 0.00 | 0.00 | 0.00 | 54 | 1018.0 |
| 20260831134235 | 82 | 242 | 1.0 | 2.0 | 0.00 | 0.00 | 0.00 | 54 | 1018.0 |
| 20260831133736 | 82 | 232 | 2.0 | 2.0 | 0.00 | 0.00 | 0.00 | 55 | 1018.0 |
| 20260831133235 | 81 | 190 | 0.0 | 2.0 | 0.00 | 0.00 | 0.00 | 55 | 1018.0 |
| 20260831132736 | 81 | 228 | 2.0 | 2.0 | 0.00 | 0.00 | 0.00 | 55 | 1018.0 |
| 20260831132236 | 80 | 235 | 2.0 | 3.0 | 0.00 | 0.00 | 0.00 | 57 | 1018.0 |
| 20260831131737 | 80 | 244 | 2.0 | 2.0 | 0.00 | 0.00 | 0.00 | 58 | 1018.0 |
| 20260831131235 | 79 | 262 | 1.0 | 2.0 | 0.00 | 0.00 | 0.00 | 60 | 1018.0 |
| 20260831130736 | 78 | 168 | 1.0 | 2.0 | 0.00 | 0.00 | 0.00 | 62 | 1018.0 |
| 20260831130236 | 77 | 233 | 1.0 | 2.0 | 0.00 | 0.00 | 0.00 | 64 | 1018.0 |
| 20260831125735 | 75 | 223 | 2.0 | 2.0 | 0.00 | 0.00 | 0.00 | 66 | 1018.0 |
| 20260831125235 | 75 | 153 | 0.0 | 2.0 | 0.00 | 0.00 | 0.00 | 67 | 1018.0 |
| 20260831124735 | 74 | 213 | 2.0 | 2.0 | 0.00 | 0.00 | 0.00 | 67 | 1018.0 |
| 20260831124235 | 74 | 189 | 2.0 | 2.0 | 0.00 | 0.00 | 0.00 | 69 | 1018.0 |
| 20260831123736 | 73 | 212 | 0.0 | 2.0 | 0.00 | 0.00 | 0.00 | 69 | 1018.0 |
| 20260831123235 | 73 | 219 | 2.0 | 2.0 | 0.00 | 0.00 | 0.00 | 69 | 1018.0 |
| 20260831122736 | 72 | 200 | 1.0 | 2.0 | 0.00 | 0.00 | 0.00 | 69 | 1018.0 |
| 20260831122236 | 72 | 236 | 1.0 | 1.0 | 0.00 | 0.00 | 0.00 | 69 | 1018.0 |
| 20260831121736 | 72 | 241 | 1.0 | 2.0 | 0.00 | 0.00 | 0.00 | 69 | 1018.0 |
| 20260831121236 | 72 | 252 | 1.0 | 2.0 | 0.00 | 0.00 | 0.00 | 69 | 1018.0 |
| 20260831120736 | 72 | 239 | 1.0 | 2.0 | 0.00 | 0.00 | 0.00 | 69 | 1017.0 |
| 20260831120238 | 73 | 237 | 1.0 | 2.0 | 0.00 | 0.00 | 0.00 | 68 | 1017.0 |
| 20260831115736 | 73 | 269 | 1.0 | 2.0 | 0.00 | 0.00 | 0.00 | 67 | 1017.0 |
| 20260831115235 | 73 | 151 | 1.0 | 2.0 | 0.00 | 0.00 | 0.00 | 67 | 1018.0 |
| 20260831114735 | 73 | 188 | 0.0 | 2.0 | 0.00 | 0.00 | 0.00 | 67 | 1017.0 |
| 20260831114235 | 73 | 226 | 1.0 | 2.0 | 0.00 | 0.00 | 0.00 | 67 | 1017.0 |
| 20260831113735 | 73 | 205 | 0.0 | 2.0 | 0.00 | 0.00 | 0.00 | 67 | 1017.0 |
| 20260831113235 | 73 | 233 | 0.0 | 2.0 | 0.00 | 0.00 | 0.00 | 67 | 1017.0 |
| 20260831112737 | 73 | 224 | 1.0 | 2.0 | 0.00 | 0.00 | 0.00 | 67 | 1017.0 |
| 20260831112235 | 73 | 201 | 1.0 | 2.0 | 0.00 | 0.00 | 0.00 | 67 | 1017.0 |
| 20260831111736 | 73 | 175 | 2.0 | 3.0 | 0.00 | 0.00 | 0.00 | 68 | 1017.0 |
| 20260831111235 | 73 | 201 | 1.0 | 3.0 | 0.00 | 0.00 | 0.00 | 67 | 1017.0 |
| 20260831110735 | 73 | 168 | 2.0 | 3.0 | 0.00 | 0.00 | 0.00 | 67 | 1017.0 |
| 20260831110236 | 73 | 170 | 2.0 | 2.0 | 0.00 | 0.00 | 0.00 | 67 | 1017.0 |
| 20260831105735 | 73 | 168 | 2.0 | 2.0 | 0.00 | 0.00 | 0.00 | 67 | 1017.0 |
| 20260831105245 | 73 | 195 | 2.0 | 2.0 | 0.00 | 0.00 | 0.00 | 67 | 1017.0 |
| 20260831104736 | 73 | 187 | 2.0 | 2.0 | 0.00 | 0.00 | 0.00 | 66 | 1017.0 |
| 20260831104236 | 73 | 205 | 1.0 | 2.0 | 0.00 | 0.00 | 0.00 | 66 | 1017.0 |
| 20260831103736 | 73 | 206 | 1.0 | 2.0 | 0.00 | 0.00 | 0.00 | 67 | 1017.0 |
| 20260831103235 | 73 | 201 | 1.0 | 2.0 | 0.00 | 0.00 | 0.00 | 67 | 1017.0 |
| 20260831102736 | 73 | 224 | 1.0 | 2.0 | 0.00 | 0.00 | 0.00 | 68 | 1017.0 |
| 20260831102236 | 73 | 239 | 0.0 | 2.0 | 0.00 | 0.00 | 0.00 | 68 | 1017.0 |
| 20260831101736 | 73 | 170 | 2.0 | 2.0 | 0.00 | 0.00 | 0.00 | 66 | 1017.0 |
| 20260831101235 | 73 | 207 | 1.0 | 2.0 | 0.00 | 0.00 | 0.00 | 67 | 1017.0 |
| 20260831100735 | 73 | 194 | 0.0 | 2.0 | 0.00 | 0.00 | 0.00 | 67 | 1017.0 |
| 20260831100235 | 73 | 214 | 1.0 | 2.0 | 0.00 | 0.00 | 0.00 | 67 | 1017.0 |
| 20260831095735 | 73 | 207 | 1.0 | 2.0 | 0.00 | 0.00 | 0.00 | 66 | 1017.0 |
| 20260831095235 | 73 | 205 | 1.0 | 2.0 | 0.00 | 0.00 | 0.00 | 66 | 1017.0 |
| 20260831094735 | 73 | 186 | 1.0 | 2.0 | 0.00 | 0.00 | 0.00 | 66 | 1017.0 |
| 20260831094235 | 73 | 220 | 1.0 | 2.0 | 0.00 | 0.00 | 0.00 | 66 | 1017.0 |
| 20260831093735 | 73 | 172 | 1.0 | 2.0 | 0.00 | 0.00 | 0.00 | 66 | 1017.0 |
| 20260831093235 | 74 | 194 | 1.0 | 2.0 | 0.00 | 0.00 | 0.00 | 65 | 1017.0 |
| 20260831092735 | 74 | 214 | 1.0 | 2.0 | 0.00 | 0.00 | 0.00 | 64 | 1017.0 |
| 20260831092236 | 74 | 196 | 1.0 | 2.0 | 0.00 | 0.00 | 0.00 | 63 | 1017.0 |
| 20260831091735 | 74 | 224 | 1.0 | 2.0 | 0.00 | 0.00 | 0.00 | 63 | 1017.0 |
| 20260831091235 | 74 | 228 | 1.0 | 2.0 | 0.00 | 0.00 | 0.00 | 63 | 1017.0 |
| 20260831090735 | 75 | 222 | 1.0 | 2.0 | 0.00 | 0.00 | 0.00 | 62 | 1017.0 |
| 20260831090235 | 75 | 203 | 1.0 | 2.0 | 0.00 | 0.00 | 0.00 | 62 | 1017.0 |
| 20260831085735 | 75 | 214 | 2.0 | 2.0 | 0.00 | 0.00 | 0.00 | 61 | 1017.0 |
| 20260831085235 | 75 | 217 | 1.0 | 2.0 | 0.00 | 0.00 | 0.00 | 61 | 1016.0 |
| 20260831084735 | 75 | 229 | 0.0 | 2.0 | 0.00 | 0.00 | 0.00 | 61 | 1017.0 |
| 20260831084235 | 75 | 172 | 1.0 | 2.0 | 0.00 | 0.00 | 0.00 | 60 | 1017.0 |
| 20260831083735 | 75 | 221 | 1.0 | 2.0 | 0.00 | 0.00 | 0.00 | 60 | 1017.0 |
| 20260831083236 | 75 | 230 | 1.0 | 2.0 | 0.00 | 0.00 | 0.00 | 60 | 1016.0 |
| 20260831082736 | 75 | 220 | 1.0 | 2.0 | 0.00 | 0.00 | 0.00 | 60 | 1016.0 |
| 20260831082235 | 75 | 232 | 1.0 | 2.0 | 0.00 | 0.00 | 0.00 | 60 | 1016.0 |
| 20260831081735 | 75 | 198 | 1.0 | 2.0 | 0.00 | 0.00 | 0.00 | 60 | 1016.0 |
| 20260831081236 | 75 | 202 | 1.0 | 1.0 | 0.00 | 0.00 | 0.00 | 60 | 1016.0 |
| 20260831080745 | 75 | 198 | 0.0 | 2.0 | 0.00 | 0.00 | 0.00 | 61 | 1016.0 |
| 20260831080239 | 74 | 219 | 1.0 | 2.0 | 0.00 | 0.00 | 0.00 | 62 | 1016.0 |
| 20260831075735 | 74 | 237 | 0.0 | 2.0 | 0.00 | 0.00 | 0.00 | 63 | 1016.0 |
| 20260831075236 | 74 | 251 | 1.0 | 2.0 | 0.00 | 0.00 | 0.00 | 64 | 1016.0 |
| 20260831074735 | 74 | 241 | 0.0 | 2.0 | 0.00 | 0.00 | 0.00 | 64 | 1016.0 |
| 20260831074235 | 74 | 205 | 0.0 | 2.0 | 0.00 | 0.00 | 0.00 | 64 | 1016.0 |
| 20260831073736 | 74 | 232 | 1.0 | 1.0 | 0.00 | 0.00 | 0.00 | 63 | 1016.0 |
| 20260831073235 | 74 | 226 | 0.0 | 1.0 | 0.00 | 0.00 | 0.00 | 63 | 1017.0 |
| 20260831072736 | 74 | 235 | 0.0 | 1.0 | 0.00 | 0.00 | 0.00 | 63 | 1016.0 |
| 20260831072235 | 75 | 235 | 0.0 | 2.0 | 0.00 | 0.00 | 0.00 | 64 | 1017.0 |
| 20260831071735 | 75 | 264 | 1.0 | 2.0 | 0.00 | 0.00 | 0.00 | 62 | 1017.0 |
| 20260831071235 | 75 | 256 | 1.0 | 1.0 | 0.00 | 0.00 | 0.00 | 62 | 1016.0 |
| 20260831070735 | 75 | 241 | 0.0 | 1.0 | 0.00 | 0.00 | 0.00 | 62 | 1017.0 |
| 20260831070236 | 75 | 265 | 0.0 | 2.0 | 0.00 | 0.00 | 0.00 | 61 | 1016.0 |
| 20260831065735 | 76 | 249 | 1.0 | 2.0 | 0.00 | 0.00 | 0.00 | 61 | 1017.0 |
| 20260831065236 | 76 | 246 | 1.0 | 2.0 | 0.00 | 0.00 | 0.00 | 62 | 1017.0 |
| 20260831064736 | 76 | 212 | 1.0 | 2.0 | 0.00 | 0.00 | 0.00 | 61 | 1017.0 |
| 20260831064236 | 76 | 236 | 1.0 | 2.0 | 0.00 | 0.00 | 0.00 | 62 | 1017.0 |
| 20260831063735 | 76 | 229 | 1.0 | 1.0 | 0.00 | 0.00 | 0.00 | 62 | 1017.0 |
| 20260831063235 | 76 | 228 | 1.0 | 2.0 | 0.00 | 0.00 | 0.00 | 62 | 1017.0 |
| 20260831062736 | 76 | 201 | 1.0 | 2.0 | 0.00 | 0.00 | 0.00 | 62 | 1017.0 |
| 20260831062236 | 76 | 219 | 0.0 | 2.0 | 0.00 | 0.00 | 0.00 | 62 | 1017.0 |
| 20260831061736 | 76 | 229 | 1.0 | 2.0 | 0.00 | 0.00 | 0.00 | 63 | 1017.0 |
| 20260831061235 | 76 | 227 | 2.0 | 2.0 | 0.00 | 0.00 | 0.00 | 63 | 1017.0 |
| 20260831060735 | 76 | 168 | 1.0 | 2.0 | 0.00 | 0.00 | 0.00 | 63 | 1017.0 |
| 20260831060235 | 76 | 225 | 1.0 | 2.0 | 0.00 | 0.00 | 0.00 | 63 | 1017.0 |
| 20260831055736 | 76 | 227 | 2.0 | 2.0 | 0.00 | 0.00 | 0.00 | 63 | 1017.0 |
| 20260831055235 | 76 | 219 | 0.0 | 1.0 | 0.00 | 0.00 | 0.00 | 64 | 1017.0 |
| 20260831054735 | 76 | 224 | 0.0 | 2.0 | 0.00 | 0.00 | 0.00 | 64 | 1017.0 |
| 20260831054237 | 76 | 225 | 1.0 | 2.0 | 0.00 | 0.00 | 0.00 | 63 | 1017.0 |
| 20260831053735 | 76 | 229 | 1.0 | 2.0 | 0.00 | 0.00 | 0.00 | 64 | 1017.0 |
| 20260831053237 | 76 | 248 | 1.0 | 2.0 | 0.00 | 0.00 | 0.00 | 64 | 1017.0 |
| 20260831052739 | 77 | 237 | 1.0 | 2.0 | 0.00 | 0.00 | 0.00 | 64 | 1017.0 |
| 20260831052235 | 77 | 232 | 2.0 | 2.0 | 0.00 | 0.00 | 0.00 | 64 | 1017.0 |
| 20260831051736 | 77 | 245 | 0.0 | 2.0 | 0.00 | 0.00 | 0.00 | 64 | 1017.0 |
| 20260831051238 | 77 | 208 | 1.0 | 2.0 | 0.00 | 0.00 | 0.00 | 64 | 1017.0 |
| 20260831050735 | 77 | 246 | 1.0 | 2.0 | 0.00 | 0.00 | 0.00 | 64 | 1017.0 |
| 20260831050235 | 77 | 229 | 2.0 | 2.0 | 0.00 | 0.00 | 0.00 | 64 | 1017.0 |
| 20260831045735 | 77 | 244 | 2.0 | 2.0 | 0.00 | 0.00 | 0.00 | 63 | 1017.0 |
| 20260831045235 | 77 | 211 | 1.0 | 2.0 | 0.00 | 0.00 | 0.00 | 63 | 1017.0 |
| 20260831044736 | 77 | 234 | 1.0 | 2.0 | 0.00 | 0.00 | 0.00 | 63 | 1017.0 |
| 20260831044235 | 78 | 238 | 1.0 | 2.0 | 0.00 | 0.00 | 0.00 | 63 | 1017.0 |
| 20260831043735 | 78 | 228 | 1.0 | 2.0 | 0.00 | 0.00 | 0.00 | 63 | 1017.0 |
| 20260831043236 | 78 | 243 | 1.0 | 2.0 | 0.00 | 0.00 | 0.00 | 62 | 1017.0 |
| 20260831042735 | 78 | 245 | 1.0 | 2.0 | 0.00 | 0.00 | 0.00 | 62 | 1017.0 |
| 20260831042235 | 78 | 228 | 1.0 | 2.0 | 0.00 | 0.00 | 0.00 | 62 | 1017.0 |
| 20260831041735 | 78 | 217 | 2.0 | 2.0 | 0.00 | 0.00 | 0.00 | 62 | 1017.0 |
| 20260831041236 | 78 | 224 | 1.0 | 2.0 | 0.00 | 0.00 | 0.00 | 62 | 1016.0 |
| 20260831040735 | 78 | 226 | 2.0 | 2.0 | 0.00 | 0.00 | 0.00 | 62 | 1017.0 |
| 20260831040235 | 79 | 236 | 1.0 | 2.0 | 0.00 | 0.00 | 0.00 | 62 | 1017.0 |
| 20260831035735 | 79 | 254 | 1.0 | 2.0 | 0.00 | 0.00 | 0.00 | 61 | 1017.0 |
| 20260831035235 | 79 | 222 | 1.0 | 2.0 | 0.00 | 0.00 | 0.00 | 61 | 1017.0 |
| 20260831034736 | 79 | 232 | 0.0 | 2.0 | 0.00 | 0.00 | 0.00 | 61 | 1017.0 |
| 20260831034235 | 79 | 231 | 1.0 | 2.0 | 0.00 | 0.00 | 0.00 | 61 | 1017.0 |
| 20260831033736 | 79 | 226 | 1.0 | 2.0 | 0.00 | 0.00 | 0.00 | 61 | 1017.0 |
| 20260831033235 | 79 | 229 | 2.0 | 2.0 | 0.00 | 0.00 | 0.00 | 61 | 1017.0 |
| 20260831032737 | 79 | 249 | 1.0 | 2.0 | 0.00 | 0.00 | 0.00 | 61 | 1017.0 |
| 20260831032235 | 80 | 262 | 1.0 | 2.0 | 0.00 | 0.00 | 0.00 | 60 | 1017.0 |
| 20260831031735 | 80 | 274 | 1.0 | 2.0 | 0.00 | 0.00 | 0.00 | 60 | 1016.0 |
| 20260831031236 | 80 | 233 | 1.0 | 2.0 | 0.00 | 0.00 | 0.00 | 59 | 1017.0 |
| 20260831030739 | 80 | 240 | 0.0 | 2.0 | 0.00 | 0.00 | 0.00 | 59 | 1017.0 |